Date String (YYYY-MM-DD hh:mm:ss) UTC,Instrument flags,absolute air pressure of the measurement (hPa),sample flow rate (lpm),inlet stack bypass flow (lpm),air temperature of the measurement (°C),ambient temperature measured by the external sensor (°C),aerosol sample conditioner tube jacket temperature (°C),OPC LED temperature (°C),internal box temperature (°C),relative humidity of the measurement (%),span deviation,mass concentration of particles derived from Lorenz-Mie calculation of OPC scattering (μg/m³),mass concentration of particles derived from Lorenz-Mie calculation of OPC scattering (μg/m³),mass concentration of particles derived from Lorenz-Mie calculation of OPC scattering (μg/m³)
DateTimeUTC,F1_M11,P_M11,Q1_M11,Q2_M11,T1_M11,T2_M11,T3_M11,T4_M11,T5_M11,U1_M11,ZSPAN_M11,X2_M11,X0_M11,X1_M11
2023-10-18 05:00:00,SystemResetWarning,0827.5,5.00,000.00,028.3,027.0,000.0,036.7,030.1,11.9,0000.0,0002.61,0007.30,0001.85
2023-10-18 05:01:00,SystemResetWarning,0827.5,4.99,000.00,028.3,027.1,000.0,036.8,030.1,11.9,0000.0,0002.65,0007.85,0001.85
2023-10-18 05:02:00,SystemResetWarning,0827.6,4.99,000.00,028.3,027.1,000.0,036.8,030.1,11.8,0000.0,0002.66,0007.84,0001.85
2023-10-18 05:03:00,SystemResetWarning,0827.7,5.00,000.00,028.4,027.1,000.0,036.8,030.1,11.8,0000.0,0002.62,0007.87,0001.85
2023-10-18 05:04:00,SystemResetWarning,0827.7,5.01,000.00,028.4,027.2,000.0,036.8,030.2,11.8,0000.0,0002.57,0007.51,0001.85
2023-10-18 05:05:00,SystemResetWarning,0827.7,5.00,000.00,028.4,027.2,000.0,036.8,030.2,11.7,0000.0,0002.52,0007.09,0001.85
2023-10-18 05:06:00,SystemResetWarning,0827.7,5.00,000.00,028.5,027.3,000.0,036.9,030.2,11.7,0000.0,0002.48,0006.76,0001.86
2023-10-18 05:07:00,SystemResetWarning,0827.7,5.00,000.00,028.5,027.3,000.0,036.9,030.2,11.7,0000.0,0002.46,0006.60,0001.85
2023-10-18 05:08:00,SystemResetWarning,0827.7,5.00,000.00,028.5,027.4,000.0,036.9,030.3,11.7,0000.0,0002.52,0006.61,0001.85
2023-10-18 05:09:00,SystemResetWarning,0827.7,5.00,000.00,028.5,027.4,000.0,036.9,030.3,11.7,0000.0,0002.57,0006.76,0001.86
2023-10-18 05:10:00,SystemResetWarning,0827.8,4.98,000.00,028.6,026.3,000.0,036.9,030.2,11.7,0000.0,0002.66,0007.37,0001.88
2023-10-18 05:11:00,SystemResetWarning,0827.8,5.01,000.00,028.5,024.8,000.0,036.8,030.1,11.7,0000.0,0002.65,0007.23,0001.88
2023-10-18 05:12:00,SystemResetWarning,0827.8,5.01,000.00,028.4,024.6,000.0,036.8,029.9,11.7,0000.0,0002.58,0006.02,0001.89
2023-10-18 05:13:00,SystemResetWarning,0827.8,4.99,000.00,028.3,024.8,000.0,036.8,029.8,11.9,0000.0,0002.58,0006.85,0001.88
2023-10-18 05:14:00,SystemResetWarning,0827.8,5.00,000.00,028.2,025.2,000.0,036.8,029.8,11.8,0000.0,0002.59,0006.74,0001.87
2023-10-18 05:15:00,SystemResetWarning,0827.8,5.00,000.00,028.2,025.5,000.0,036.8,029.8,11.8,0000.0,0002.60,0006.74,0001.87
2023-10-18 05:16:00,SystemResetWarning,0827.7,5.00,000.00,028.2,025.8,000.0,036.8,029.9,11.8,0000.0,0002.63,0007.41,0001.89
2023-10-18 05:17:00,SystemResetWarning,0827.7,5.00,000.00,028.2,026.1,000.0,036.8,029.9,11.9,0000.0,0002.65,0007.59,0001.89
2023-10-18 05:18:00,SystemResetWarning,0827.7,5.00,000.00,028.2,026.3,000.0,036.8,029.9,11.9,0000.0,0002.70,0007.63,0001.89
2023-10-18 05:19:00,SystemResetWarning,0827.7,4.99,000.00,028.2,026.5,000.0,036.8,030.0,11.9,0000.0,0002.69,0007.58,0001.90
2023-10-18 05:20:00,SystemResetWarning,0827.7,5.00,000.00,028.3,026.7,000.0,036.8,030.0,11.9,0000.0,0002.66,0007.56,0001.90
2023-10-18 05:21:00,SystemResetWarning,0827.6,5.00,000.00,028.3,026.8,000.0,036.8,030.0,11.9,0000.0,0002.62,0007.38,0001.90
2023-10-18 05:22:00,SystemResetWarning,0827.6,5.00,000.00,028.3,026.9,000.0,036.8,030.1,11.9,0000.0,0002.63,0007.70,0001.91
2023-10-18 05:23:00,SystemResetWarning,0827.6,5.00,000.00,028.3,027.0,000.0,036.8,030.1,12.0,0000.0,0002.69,0008.28,0001.91
2023-10-18 05:24:00,SystemResetWarning,0827.7,5.00,000.00,028.4,027.1,000.0,036.8,030.2,11.9,0000.0,0002.75,0008.13,0001.93
2023-10-18 05:25:00,SystemResetWarning,0827.7,5.00,000.00,028.4,027.1,000.0,036.8,030.2,11.9,0000.0,0002.76,0008.23,0001.92
2023-10-18 05:26:00,SystemResetWarning,0827.7,5.00,000.00,028.4,027.2,000.0,036.8,030.2,11.9,0000.0,0002.77,0008.11,0001.94
2023-10-18 05:27:00,SystemResetWarning,0827.7,5.00,000.00,028.4,027.2,000.0,036.8,030.2,11.9,0000.0,0002.81,0007.37,0001.95
2023-10-18 05:28:00,SystemResetWarning,0827.7,5.01,000.00,028.5,027.3,000.0,036.9,030.2,11.9,0000.0,0002.89,0007.34,0001.95
2023-10-18 05:29:00,SystemResetWarning,0827.7,5.00,000.00,028.5,027.3,000.0,036.9,030.3,11.9,0000.0,0002.82,0007.16,0001.95
2023-10-18 05:30:00,SystemResetWarning,0827.8,4.99,000.00,028.5,027.4,000.0,036.9,030.3,11.9,0000.0,0002.78,0007.13,0001.94
2023-10-18 05:31:00,SystemResetWarning,0827.8,4.99,000.00,028.6,027.4,000.0,036.9,030.3,11.9,0000.0,0002.81,0007.14,0001.94
2023-10-18 05:32:00,SystemResetWarning,0827.7,4.99,000.00,028.6,027.5,000.0,037.0,030.4,11.9,0000.0,0002.79,0007.00,0001.95
2023-10-18 05:33:00,SystemResetWarning,0827.7,4.99,000.00,028.6,027.1,000.0,037.0,030.4,11.8,0000.0,0002.81,0006.59,0001.95
2023-10-18 05:34:00,SystemResetWarning,0827.7,5.00,000.00,028.6,025.3,000.0,036.9,030.2,11.8,0000.0,0002.82,0006.58,0001.95
2023-10-18 05:35:00,SystemResetWarning,0827.7,5.00,000.00,028.5,024.6,000.0,036.8,030.1,11.9,0000.0,0002.74,0005.70,0001.95
2023-10-18 05:36:00,SystemResetWarning,0827.7,5.02,000.00,028.4,024.7,000.0,036.8,029.9,12.0,0000.0,0002.69,0005.36,0001.95
2023-10-18 05:37:00,SystemResetWarning,0827.7,5.00,000.00,028.3,025.0,000.0,036.8,029.8,12.1,0000.0,0002.70,0005.37,0001.93
2023-10-18 05:38:00,SystemResetWarning,0827.7,5.00,000.00,028.3,025.4,000.0,036.8,029.8,12.1,0000.0,0002.68,0005.31,0001.92
2023-10-18 05:39:00,SystemResetWarning,0827.7,5.00,000.00,028.2,025.7,000.0,036.8,029.9,12.2,0000.0,0002.57,0005.06,0001.92
2023-10-18 05:40:00,SystemResetWarning,0827.7,5.00,000.00,028.2,026.0,000.0,036.8,029.9,12.1,0000.0,0002.56,0005.04,0001.93
2023-10-18 05:41:00,SystemResetWarning,0827.7,5.00,000.00,028.2,026.2,000.0,036.8,029.9,12.1,0000.0,0002.56,0004.98,0001.94
2023-10-18 05:42:00,SystemResetWarning,0827.7,4.99,000.00,028.3,026.4,000.0,036.8,029.9,12.1,0000.0,0002.56,0005.01,0001.94
2023-10-18 05:43:00,SystemResetWarning,0827.7,5.00,000.00,028.3,026.6,000.0,036.8,030.0,12.1,0000.0,0002.55,0004.91,0001.94
2023-10-18 05:44:00,SystemResetWarning,0827.7,5.00,000.00,028.3,026.8,000.0,036.8,030.0,12.1,0000.0,0002.53,0006.32,0001.94
2023-10-18 05:45:00,SystemResetWarning,0827.7,5.00,000.00,028.3,026.9,000.0,036.8,030.1,12.0,0000.0,0002.49,0005.37,0001.94
2023-10-18 05:46:00,SystemResetWarning,0827.7,5.01,000.00,028.4,027.0,000.0,036.8,030.1,12.0,0000.0,0002.47,0005.11,0001.94
2023-10-18 05:47:00,SystemResetWarning,0827.7,5.00,000.00,028.4,027.1,000.0,036.8,030.2,11.9,0000.0,0002.51,0005.19,0001.95
2023-10-18 05:48:00,SystemResetWarning,0827.7,4.99,000.00,028.4,027.2,000.0,036.8,030.2,12.0,0000.0,0002.49,0005.25,0001.96
2023-10-18 05:49:00,SystemResetWarning,0827.7,5.00,000.00,028.4,027.2,000.0,036.9,030.2,11.9,0000.0,0002.45,0005.61,0001.98
2023-10-18 05:50:00,SystemResetWarning,0827.8,5.00,000.00,028.5,027.3,000.0,036.9,030.2,12.0,0000.0,0002.45,0005.59,0001.97
2023-10-18 05:51:00,SystemResetWarning,0827.7,5.00,000.00,028.5,027.3,000.0,036.9,030.3,12.0,0000.0,0002.44,0005.66,0001.96
2023-10-18 05:52:00,SystemResetWarning,0827.7,5.00,000.00,028.5,027.4,000.0,036.9,030.3,11.9,0000.0,0002.42,0005.73,0001.93
2023-10-18 05:53:00,SystemResetWarning,0827.8,5.00,000.00,028.6,027.4,000.0,036.9,030.3,11.7,0000.0,0002.42,0005.70,0001.91
2023-10-18 05:54:00,SystemResetWarning,0827.8,5.00,000.00,028.6,027.5,000.0,037.0,030.4,11.6,0000.0,0002.41,0005.68,0001.91
2023-10-18 05:55:00,SystemResetWarning,0827.8,5.00,000.00,028.6,026.9,000.0,037.0,030.4,11.7,0000.0,0002.42,0004.56,0001.90
2023-10-18 05:56:00,SystemResetWarning,0827.9,5.00,000.00,028.6,025.1,000.0,036.9,030.2,11.7,0000.0,0002.42,0004.20,0001.90
2023-10-18 05:57:00,SystemResetWarning,0827.9,5.01,000.00,028.5,024.5,000.0,036.8,030.1,11.8,0000.0,0002.41,0004.84,0001.90
2023-10-18 05:58:00,SystemResetWarning,0827.8,5.00,000.00,028.4,024.7,000.0,036.8,029.9,11.9,0000.0,0002.44,0005.01,0001.89
2023-10-18 05:59:00,SystemResetWarning,0827.9,5.00,000.00,028.3,025.0,000.0,036.9,029.8,11.9,0000.0,0002.46,0005.02,0001.89
